Tracking 19847 objects as of 15-Sep-2019
HD Live streaming from Space Station
objects crossing your sky now

BEIDOU 3 IGSO-2

Track BEIDOU 3 IGSO-2 now!


NORAD ID: 44337
Int'l Code: 2019-035A
Perigee: 35,743.6 km
Apogee: 35,843.0 km
Inclination: 55.1 °
Period: 1,436.1 minutes
Semi major axis: 42164 km
RCS: Unknown
Launch date: June 24, 2019
Source: People's Republic of China (PRC)
Launch site: Xichang Space Center, China (XSC)
aabbcc
Your satellite tracking list
Your tracking list is empty




NASA's NSSDC Master Catalog

Two Line Element Set (TLE):
1 44337U 19035A   19258.03490025 -.00000146  00000-0  00000+0 0  9998
2 44337  55.0539 180.8454 0011789 181.4384 112.0527  1.00273475   956
Source of the keplerian elements: AFSPC